Satellite: RS-38 Catalog number: 35869 Epoch time: 10042.36481610 Element set: 127 Inclination: 098.7776 deg RA of node: 096.9842 deg Eccentricity: 0.0004993 Arg of perigee: 018.5817 deg Mean anomaly: 341.5529 deg Mean motion: 14.21975152 rev/day Decay rate: 1.76e-06 rev/day^2 Epoch rev: 2084 Checksum: 329
/EX
participants (1)
-
Ray Hoad